Regional Weather Roundup
Issued by NWS Burlington, VT

Home | Current Version | Previous Version | Text Only | Print | Product List | Glossary On
Versions: 1 2 3 4 5 6 7 8 9 10 11 12 13 14 15 16 17 18 19 20 21 22 23 24 25 26 27 28 29 30 31 32 33 34 35 36 37 38 39 40 41 42 43 44 45 46 47 48 49 50
000
ASUS41 KBTV 201510
RWRBTV
VERMONT REGIONAL WEATHER ROUNDUP
NATIONAL WEATHER SERVICE BURLINGTON VT
1100 AM EDT FRI APR 20 2018

NOTE: "FAIR" INDICATES FEW OR NO CLOUDS BELOW 12,000 FEET WITH NO
SIGNIFICANT WEATHER AND/OR OBSTRUCTIONS TO VISIBILITY.

* THESE REPORTS ARE NOT UNDER NWS QUALITY CONTROL AND/OR DO NOT
  REPORT WEATHER SUCH AS PRECIPITATION AND FOG.

VTZ001>019-201600-
_____VERMONT_____


CITY           SKY/WX    TMP DP  RH WIND       PRES   REMARKS
BURLINGTON     CLOUDY    35  27  72 NW16      30.14R WCI  25
MONTPELIER     CLOUDY    31  27  85 NW15G23   30.10R WCI  20
MORRISVILLE    CLOUDY    32  26  78 NW8       30.10R WCI  25
ST. JOHNSBURY*   N/A     37  27  67 MISG      30.02R
LYNDONVILLE*   LGT SNOW  33  27  79 W15G22    30.04R WCI  23
MIDDLEBURY*    CLOUDY    35  29  79 N10       30.13R WCI  27
RUTLAND*       CLOUDY    35  27  72 NW9       30.11R WCI  28
SPRINGFIELD    CLOUDY    36  27  69 W5        30.09R
HIGHGATE*      CLOUDY    35  29  77 NW6       30.13R WCI  30
NEWPORT*       CLOUDY    34  28  79 NW8G16    30.05R WCI  27
BENNINGTON     CLOUDY    38  24  57 NW13      30.11R WCI  30

_____LAKE CHAMPLAIN_____


CITY           SKY/WX    TMP DP  RH WIND       PRES   REMARKS
BURTON ISLAND*   N/A     36  30  80 NW13G20     N/A  WCI  27
COLCHESTER RF*   N/A     34  30  86 NW15        N/A  WCI  24

$$

NYZ007-026>031-035-052-083-087-201600-
_____NORTHERN NEW YORK_____


CITY           SKY/WX    TMP DP  RH WIND       PRES   REMARKS
PLATTSBURGH    CLOUDY    37  25  61 W6        30.14R
SARANAC LAKE   CLOUDY    26  22  84 NW9       30.12R WCI  17
MASSENA        CLOUDY    36  27  69 W13       30.23R WCI  27
OGDENSBURG*    CLOUDY    37  27  65 NW12G18   30.25R WCI  30
POTSDAM*       CLOUDY    34  27  75 NW9       30.23R WCI  26
WATERTOWN      CLOUDY    34  24  67 W9        30.29R WCI  27
FT DRUM        CLOUDY    32  23  67 NW13      30.25R WCI  23
ALBANY         PTSUNNY   41  22  46 W17       30.17R
GLENS FALLS    CLOUDY    40  24  53 N14       30.14R

$$
NHZ002-005-011-201600-
_____NEW HAMPSHIRE_____


CITY           SKY/WX    TMP DP  RH WIND       PRES   REMARKS
LEBANON        CLOUDY    38  24  57 VRB7      30.07R
KEENE          CLOUDY    42  25  50 NW12G20   30.07R
MT WASHINGTON  SNOW      16  16 100 NW45G52     N/A  VSB 0   WCI  -8
PLYMOUTH       CLOUDY    37  28  69 W12G18    30.03R WCI  30
WHITEFIELD     CLOUDY    35  27  72 NW15      30.01R WCI  25

$$

_____REGIONAL QUEBEC LOCATIONS_____


CITY           SKY/WX    TMP DP  RH WIND       PRES   REMARKS
MONTREAL       CLOUDY    41  28  60 W9        30.13R
QUEBEC CITY    LGT RAIN  43  30  61 N6        29.98R
SHERBROOKE     MIX PCPN  34  34 100 W10       30.01R WCI  26

_____REGIONAL ONTARIO LOCATIONS_____


CITY           SKY/WX    TMP DP  RH WIND       PRES   REMARKS
OTTAWA         PTSUNNY   39  25  56 NW16G24   30.23R WCI  30

______KEY______
VSB  - VISIBILITY IN MILES
WCI  - WIND CHILL INDEX
HX   - HEAT INDEX
$$
NNNN




USA.gov is the U.S. government's official web portal to all federal, state and local government web resources and services.